EDT,Max TemperatureF,Mean TemperatureF,Min TemperatureF,Max Dew PointF,MeanDew PointF,Min DewpointF,Max Humidity, Mean Humidity, Min Humidity, Max Sea Level PressureIn, Mean Sea Level PressureIn, Min Sea Level PressureIn, Max VisibilityMiles, Mean VisibilityMiles, Min VisibilityMiles, Max Wind SpeedMPH, Mean Wind SpeedMPH, Max Gust SpeedMPH,PrecipitationIn, CloudCover, Events, WindDirDegrees
2013-3-1,32,30,27,30,26,20,96,83,71,30.09,30.02,29.95,10,8,2,13,7,16,0.00,8,Snow,26
2013-3-2,41,27,24,20,18,17,79,67,57,30.10,30.08,30.05,10,9,2,14,9,18,0.00,8,Snow,2
2013-3-3,41,28,24,22,20,17,86,73,57,30.09,30.07,30.04,10,8,2,12,7,17,0.00,7,Snow,322
2013-3-4,41,28,19,29,21,16,92,74,55,30.14,30.08,29.99,10,9,2,14,3,,0.00,3,Snow,119
2013-3-5,41,30,27,30,29,26,96,89,79,30.01,29.81,29.66,10,5,0,20,12,23,0.22,8,Snow,74
2013-3-6,41,29,26,29,25,22,93,84,73,30.25,30.07,29.75,10,7,2,20,12,28,0.00,8,Snow,331
2013-3-7,41,32,29,28,27,22,93,84,66,30.40,30.33,30.25,10,6,3,12,8,,0.00,8,Snow,296
2013-3-8,41,28,20,22,21,17,93,70,52,30.49,30.43,30.38,10,7,4,8,3,,0.00,0,Snow,108
2013-3-9,45,36,28,33,28,22,79,71,61,30.38,30.19,29.96,10,8,3,14,8,20,0.00,2,Rain-Snow,136
2013-3-10,61,53,45,41,36,32,62,54,42,29.96,29.86,29.74,10,9,1,22,12,28,0.00,3,,174
2013-3-11,54,43,32,48,40,30,95,84,55,29.82,29.69,29.58,10,7,2,28,14,36,0.12,8,Rain-Snow,222
2013-3-12,37,34,31,31,27,24,95,80,64,30.00,29.93,29.83,10,7,1,23,17,29,0.00,7,Snow,269
2013-3-13,32,28,25,27,19,16,87,70,57,30.30,30.15,29.99,10,8,2,24,16,29,0.00,6,Snow,299
2013-3-14,38,30,22,28,21,17,87,70,48,30.33,30.26,30.14,10,9,2,13,7,18,0.00,2,Snow,258
2013-3-15,46,38,29,40,33,28,95,85,68,30.14,29.95,29.79,10,6,2,9,6,,0.00,3,Rain,212
2013-3-16,43,38,32,38,35,27,97,89,78,30.06,29.81,29.62,10,4,0,14,8,21,0.00,7,Fog-Rain-Snow,24
2013-3-17,36,32,28,27,23,20,84,72,62,30.18,30.11,30.02,10,10,5,20,11,29,0.00,6,Snow,67
2013-3-18,39,34,29,38,31,24,99,91,77,30.01,29.74,29.54,10,5,1,22,13,31,0.06,8,Rain-Snow,113
2013-3-19,36,30,23,25,18,14,76,62,50,30.07,29.95,29.81,10,8,2,33,26,44,0.00,4,Snow,272
2013-3-20,30,26,21,18,13,8,77,60,48,30.07,30.01,29.99,10,8,2,25,16,33,0.00,4,Snow,288
2013-3-21,32,24,15,18,12,10,79,62,42,30.01,29.98,29.96,10,6,2,16,11,23,0.00,3,Snow,299
2013-3-22,40,29,18,21,16,12,87,62,33,30.05,30.02,29.99,10,8,2,13,3,20,0.00,0,Snow,276
2013-3-23,43,34,26,25,20,17,80,59,37,30.09,30.03,29.93,10,8,2,14,4,20,0.00,2,Snow,38
2013-3-24,34,31,28,27,24,22,94,78,65,29.95,29.71,29.49,10,4,0,30,14,41,0.06,6,Snow,68
2013-3-25,33,30,27,29,27,26,94,87,73,29.97,29.69,29.52,7,2,0,16,12,23,0.04,8,Snow,344
2013-3-26,35,32,30,29,28,25,94,83,70,30.22,30.11,29.97,10,7,2,17,10,21,0.00,8,Snow,301
2013-3-27,37,30,22,28,25,19,87,77,65,30.31,30.27,30.22,10,10,7,14,10,,0.00,3,,284
2013-3-28,43,34,24,30,25,21,87,73,52,30.36,30.32,30.30,10,10,5,10,6,16,0.00,0,,272
2013-3-29,50,40,29,34,29,26,93,71,42,30.32,30.28,30.22,10,10,7,9,2,,0.00,3,,279
2013-3-30,54,41,28,36,30,25,90,64,39,30.24,30.12,29.94,10,10,7,12,3,18,0.00,0,,194
2013-3-31,58,49,40,43,38,32,95,71,44,29.93,29.80,29.73,10,8,2,21,8,30,0.01,6,Rain,256